Location: Tuebingen alte Sternwarte
(48.5376°N, 9.0555°E)
Time: 03:07:28
(UTC+01:00)

Envisat - Visible Passes

Search period start: 25 February 2018 00:00
Search period end: 07 March 2018 00:00
Orbit: 764 x 766 km, 98.2° (Epoch: 24 February)

Date Brightness Start Highest point End Pass type
(mag) Time Alt. Az. Time Alt. Az. Time Alt. Az.
25 Feb 3.3 19:07:42 10° SE 19:12:31 46° ENE 19:17:23 10° N visible
25 Feb 5.0 20:47:30 10° SSW 20:51:45 27° W 20:56:02 10° NW visible
26 Feb 4.1 18:32:03 10° ESE 18:36:05 25° ENE 18:40:09 10° N visible
26 Feb 3.7 20:09:50 10° S 20:14:47 54° W 20:19:48 10° NNW visible
27 Feb 2.9 19:32:58 10° SSE 19:38:02 75° ENE 19:43:07 10° N visible
27 Feb 5.7 21:14:29 10° SW 21:17:38 16° W 21:20:47 10° NW visible
28 Feb 3.5 18:56:48 10° SE 19:01:27 38° ENE 19:06:08 10° N visible
28 Feb 4.6 20:35:59 10° SSW 20:40:31 33° W 20:45:06 10° NNW visible
01 Mar 3.3 19:58:35 10° S 20:03:37 67° WSW 20:08:42 10° NNW visible
02 Mar 3.0 19:21:55 10° SSE 19:26:55 61° ENE 19:31:56 10° N visible
02 Mar 5.4 21:02:40 10° SW 21:06:21 20° W 21:10:05 10° NW visible
03 Mar 3.8 18:45:58 10° SE 18:50:24 31° ENE 18:54:51 10° N visible
03 Mar 4.3 20:24:33 10° SSW 20:29:19 40° W 20:34:07 10° NNW visible
04 Mar 3.0 19:47:23 10° SSE 19:52:29 82° WSW 19:57:36 10° NNW visible
04 Mar 5.9 21:30:26 10° WSW 21:32:18 12° W 21:34:10 10° WNW visible
05 Mar 3.2 19:10:56 10° SE 19:15:49 50° ENE 19:20:44 10° N visible
05 Mar 5.1 20:50:59 10° SSW 20:55:06 25° W 20:59:15 10° NW visible
06 Mar 3.9 20:13:12 10° S 20:18:07 50° W 20:23:04 10° NNW visible
